Погода в Таразе

Погода в Таразе : погода сейчас, прогноз погоды и архив. Всё, что Вы хотите узнать о погоде в Таразе!

Поиск расширенной информации на нашем сайте:

Полезная информация:

Другие новости

Новости СМИ2

Главная страница сайта

Новости сайта

03.07.2017

Напоминаем, что на нашем специализированном сайте Метеоцентр.Азия вы можете получить высокодетализированные автоматические прогнозы погоды по пунктам России, СНГ и мира в авиационном формате (включающие направление и скорость ветра, видимость, явления погоды, количество и форму облачности, нижнюю и верхнюю границу облачности).

Рекомендуем:

Погода в Таразе - сегодня

Время (UTC), дата Ветер
(°,м/с) 
Видим.   Явления Облачность Т
(°С)
Тd
(°С)
f(%) Тe
(°С)
Pmin
(гПа)
dP
(гПа)
Po
(мм)
O2
(г/м3)
Тmin Tmax R s Состояние
почвы
09 15.09.19 320 (СЗ) 20000 м  {ливн. осадки}  8/6 600 м кучево-дожд., средняя 
[Cb cap|Ac lent]
+19.7 +7.1 44 +20  1016.7  707  265           
12 15.09.19 230 (ЮЗ) 4000 м  слаб. ливневой дождь  10/10 600 м кучево-дожд. 
[Cb cap]
+16.1 +9.8 66 +18  1019.9  2.2  709  268           
15 15.09.19 180 (Ю) 4000 м  слаб. ливневой дождь  10/10 600 м кучево-дожд. 
[Cb cap]
+14.4 +10.6 78 +19  1021  0.6  709  269    +21.7  0.8     
18 15.09.19 220 (ЮЗ) 10 км  {ливн. осадки}  3/3 1000 м 
[Sc diur, vesp]
+13.4 +8.9 74 +15  1020.1  -1.2  709  270    +21.7  0.8     
21 15.09.19 тихо ()   10 км    3/0 средняя 
[Ac lent]
+13.1 +7.1 67 +13  1019.7  -0.4  708  271           
00 16.09.19 тихо ()   10 км    ясно 
+10 +7.3 83 +10  1021.2  0.5  709  274           
03 16.09.19 200 (Ю) 20000 м    4/0 средняя 
[Ac lent]
+16.9 +5.3 46 +17  1019.6  0.3  709  268      0.3     
06 16.09.19 320 (СЗ) 20000 м    4/3 1000 м средняя 
[Sc diur, vesp|Ac lent]
+22.4 +2.7 27 +22  1017.4  -0.7  708  263  +9.4    0.3     
09 16.09.19 330 (СЗ) 20000 м    10/8 600 м кучево-дожд., средняя 
[Cb cap|Ac lent]
+24.3 -1.4 18 +24  1016.3  -0.7  708  262           
12 16.09.19 330 (СЗ) 20000 м    10/10 600 м кучево-дожд. 
[Cb cap]
+21.9 -0.5 22 +22  1016.9  708  264           
15 16.09.19 тихо ()   10 км    10/8 600 м кучево-дожд., средняя 
[Cb cap|Ac lent]
+18.2 +0.9 31 +18  1019.3  1.6  709  268    +25       
18 16.09.19 тихо ()   10 км    10/10 600 м кучево-дожд. 
[Cb cap]
+16.8 +3 40 +17  1020.6  0.7  710  269    +25       
21 16.09.19 290 (З) 10 км    6/6 1000 м 
[Sc diur, vesp]
+13.6 +3.4 50 +14  1021.4  -0.1  709  272           
00 17.09.19 тихо ()   10 км    ясно 
+11.5 +3.6 58 +12  1022.7  0.7  710  274           
03 17.09.19 тихо ()   20000 м    ясно 
+17.8 +3.4 38 +18  1022.3  1.2  711  268           
06 17.09.19 120 (ЮВ) 20000 м    ясно 
+23.1 -0 22 +23  1020.5  -0.4  711  264  +10.5         
09 17.09.19 050 (СВ) 20000 м    ясно 
+24.1 -0.7 19 +24  1018.8  -1.2  710  263           
12 17.09.19 040 (СВ) 20000 м    ясно 
+24 +0 20 +24  1017.9  -1.1  709  262           
15 17.09.19 тихо ()   10 км    ясно 
+17.8 +1.5 33 +18  1019.1  -0.2  709  268    +24.9       
18 17.09.19 тихо ()   10 км    ясно 
+14.9 +1.7 41 +15  1018.8  -1.1  708  270    +24.9       
21 17.09.19 190 (Ю) 10 км    ясно 
+13.6 +2.5 47 +15  1018.2  -0.9  707  271           
00 18.09.19 180 (Ю) 10 км    ясно 
+10.2 +3 61 +11  1018.2  -0.8  707  274           
03 18.09.19 тихо ()   20000 м    ясно 
+17.2 +4.3 42 +17  1016  -0.3  706  267           
06 18.09.19 тихо ()   20000 м    ясно 
+25 +0.6 20 +25  1012.4  -1.5  705  260  +8.9         
09 18.09.19 030 (СВ) 20000 м    ясно 
+27.8 +0.4 17 +28  1010.6  -1.1  704  257           
Время (UTC), дата Ветер
(°,м/с) 
Видим.   Явления Облачность Т
(°С)
Тd
(°С)
f(%) Тe
(°С)
Pmin
(гПа)
dP
(гПа)
Po
(мм)
O2
(г/м3)
Тmin Tmax R s Состояние
почвы

Для получения пояснительной информации подведите курсор к названию столбца.

ПОГОДА в Таразе - архив

Всё, что Вы хотите узнать о погоде в Таразе - удобно и подробно!

Выберите нужную дату (начиная с 1 января 2018* года) и нажмите кнопку "Найти".
Будут отображены архивные сводки погоды по пункту Тараз, начиная с указанной даты.


Отображать данные в формате CSV (для использования в таблицах Excel)


Внимание! Наш архив погоды предназначен исключительно для личного некоммерческого использования в познавательных целях. Если Вам необходимы официальные справки о состоянии погоды (для производственных, юридических, коммерческих и т.п. целей), обращайтесь в органы Росгидромета.

*Примечание: данная дата относится к архиву по метеостанциям СССР (Россия, СНГ, Балтия).
Архив по метеостанциям Зарубежной Европы и Азии (кроме Китая) хранится 10 дней, по другим регионам земного шара (Китай, Африка, Америка, Австралия, Океания) - 1 день.

Тараз - район местоположения метеостанции


Название, широта, долгота, высота метеостанции:
Тараз (город) 42.9°ш. 71.4°д. 651 м над ур. моря [Казахстан]

Дополнительная информация

В oтличие oт бoльшинства пoгoдных сайтoв мы публикуем пoдрoбную метеoинфoрмацию в детальнoм прoфессиoнальнoм фoрмате.

Характеристики температуры и влажнoсти вoздуха измеряются на высoте 2 м в тени вдали oт зданий и деревьев.
Скoрoсть ветра измеряется на высoте 10 м (на урoвне рoста челoвека скoрoсть ветра ниже в 1.5-2 раза). Если метеoстанция нахoдится в гoрoде или в лесу, тo скoрoсть ветра занижена на 2-4 м/с пo сравнению с oткрытым местoм. Скoрoсть ветра над акватoриями крупных рек и oзёр, а также на вершинах хoлмoв на 2-5 м/с выше, чем в oбычных услoвиях.
Атмoсфернoе давление в разных тoчках местнoсти мoжет значительнo oтличаться oт давления на метеoстанции, в зависимoсти oт услoвий рельефа (при пoдъёме на 10 м давление пoнижается примернo на 1 мм рт.ст.).